| time (UTC) | temp F | wind direction | speed knots | gust knots | rain 1hr in | rain 24hr in | rain mn in | humidity % | barometer mb |
| 20260906104545 | 70 | 0 | 0.0 | 0.9 | 0.00 | 0.04 | 0.00 | 93 | 1014.7 |
| 20260906103053 | 70 | 0 | 0.0 | 0.9 | 0.00 | 0.04 | 0.00 | 92 | 1014.6 |
| 20260906101556 | 71 | 0 | 0.0 | 0.9 | 0.00 | 0.04 | 0.00 | 92 | 1014.5 |
| 20260906100046 | 71 | 0 | 0.0 | 1.7 | 0.00 | 0.04 | 0.00 | 92 | 1014.2 |
| 20260906094545 | 70 | 11 | 0.0 | 2.6 | 0.00 | 0.04 | 0.00 | 92 | 1014.0 |
| 20260906093057 | 70 | 0 | 0.0 | 1.7 | 0.00 | 0.04 | 0.00 | 92 | 1013.9 |
| 20260906091545 | 70 | 0 | 0.0 | 0.0 | 0.00 | 0.04 | 0.00 | 92 | 1013.8 |
| 20260906090045 | 70 | 0 | 0.0 | 0.0 | 0.00 | 0.04 | 0.00 | 91 | 1013.6 |
| 20260906084556 | 70 | 0 | 0.0 | 0.0 | 0.00 | 0.04 | 0.00 | 90 | 1013.4 |
| 20260906083049 | 71 | 0 | 0.0 | 0.0 | 0.00 | 0.04 | 0.00 | 89 | 1013.5 |
| 20260906081555 | 71 | 0 | 0.0 | 0.9 | 0.00 | 0.04 | 0.00 | 89 | 1013.3 |
| 20260906080058 | 71 | 0 | 0.0 | 0.9 | 0.00 | 0.04 | 0.00 | 88 | 1013.1 |
| 20260906074559 | 72 | 0 | 0.0 | 0.9 | 0.00 | 0.04 | 0.00 | 87 | 1013.0 |
| 20260906073047 | 72 | 321 | 0.0 | 2.6 | 0.00 | 0.04 | 0.00 | 87 | 1012.9 |
| 20260906071555 | 72 | 0 | 0.0 | 1.7 | 0.00 | 0.04 | 0.00 | 88 | 1013.2 |
| 20260906070051 | 72 | 0 | 0.0 | 0.9 | 0.00 | 0.04 | 0.00 | 87 | 1013.4 |
| 20260906064545 | 71 | 0 | 0.0 | 0.9 | 0.00 | 0.04 | 0.00 | 89 | 1013.7 |
| 20260906063046 | 71 | 0 | 0.0 | 0.0 | 0.00 | 0.04 | 0.00 | 88 | 1013.8 |
| 20260906061552 | 72 | 0 | 0.0 | 0.0 | 0.00 | 0.04 | 0.00 | 88 | 1013.9 |
| 20260906060059 | 72 | 0 | 0.0 | 0.9 | 0.00 | 0.04 | 0.00 | 87 | 1014.0 |
| 20260906054548 | 73 | 0 | 0.0 | 0.0 | 0.00 | 0.04 | 0.00 | 86 | 1013.9 |
| 20260906053042 | 73 | 0 | 0.0 | 0.9 | 0.00 | 0.04 | 0.00 | 85 | 1013.8 |
| 20260906051555 | 73 | 0 | 0.0 | 0.0 | 0.00 | 0.04 | 0.00 | 85 | 1013.6 |
| 20260906050053 | 74 | 0 | 0.0 | 0.0 | 0.00 | 0.04 | 0.00 | 84 | 1013.9 |
| 20260906044545 | 74 | 0 | 0.0 | 0.0 | 0.00 | 0.04 | 0.00 | 82 | 1014.0 |
| 20260906043053 | 74 | 0 | 0.0 | 0.0 | 0.00 | 0.04 | 0.00 | 83 | 1014.0 |
| 20260906041550 | 75 | 0 | 0.0 | 0.9 | 0.00 | 0.04 | 0.00 | 82 | 1014.2 |
| 20260906040049 | 75 | 0 | 0.0 | 0.9 | 0.00 | 0.04 | 0.00 | 82 | 1014.3 |
| 20260906034542 | 76 | 0 | 0.0 | 1.7 | 0.00 | 0.04 | 0.04 | 80 | 1014.3 |
| 20260906033054 | 75 | 0 | 0.0 | 0.0 | 0.00 | 0.04 | 0.04 | 83 | 1014.3 |
| 20260906031549 | 75 | 0 | 0.0 | 0.9 | 0.00 | 0.04 | 0.04 | 83 | 1014.1 |
| 20260906030046 | 76 | 0 | 0.0 | 1.7 | 0.00 | 0.04 | 0.04 | 80 | 1014.2 |
| 20260906024552 | 75 | 0 | 0.0 | 0.0 | 0.00 | 0.04 | 0.04 | 81 | 1014.2 |
| 20260906023052 | 75 | 0 | 0.0 | 0.0 | 0.00 | 0.04 | 0.04 | 83 | 1014.0 |
| 20260906021557 | 75 | 0 | 0.0 | 0.9 | 0.00 | 0.04 | 0.04 | 82 | 1014.0 |
| 20260906020047 | 75 | 0 | 0.0 | 0.0 | 0.00 | 0.04 | 0.04 | 83 | 1014.0 |
| 20260906014546 | 75 | 0 | 0.0 | 0.9 | 0.00 | 0.04 | 0.04 | 83 | 1014.0 |
| 20260906013044 | 75 | 0 | 0.0 | 0.0 | 0.00 | 0.04 | 0.04 | 83 | 1013.8 |
| 20260906011555 | 75 | 0 | 0.0 | 0.0 | 0.00 | 0.04 | 0.04 | 83 | 1013.7 |
| 20260906010053 | 75 | 0 | 0.0 | 0.0 | 0.00 | 0.04 | 0.04 | 84 | 1013.6 |
| 20260906004549 | 75 | 0 | 0.0 | 0.0 | 0.00 | 0.04 | 0.04 | 85 | 1013.5 |
| 20260906003046 | 75 | 0 | 0.0 | 0.0 | 0.00 | 0.04 | 0.04 | 84 | 1013.5 |
| 20260906001600 | 75 | 0 | 0.0 | 0.0 | 0.00 | 0.04 | 0.04 | 84 | 1013.3 |
| 20260906000049 | 76 | 0 | 0.0 | 0.0 | 0.00 | 0.04 | 0.04 | 83 | 1013.1 |
| 20260905234547 | 76 | 0 | 0.0 | 0.0 | 0.00 | 0.04 | 0.04 | 81 | 1013.1 |
| 20260905233102 | 78 | 0 | 0.0 | 1.7 | 0.00 | 0.04 | 0.04 | 78 | 1013.0 |
| 20260905231556 | 78 | 0 | 0.0 | 1.7 | 0.00 | 0.04 | 0.04 | 78 | 1013.0 |
| 20260905230048 | 78 | 0 | 0.0 | 0.0 | 0.00 | 0.04 | 0.04 | 76 | 1012.8 |
| 20260905224604 | 79 | 0 | 0.0 | 1.7 | 0.00 | 0.04 | 0.04 | 73 | 1012.9 |
| 20260905223054 | 79 | 237 | 0.0 | 1.7 | 0.00 | 0.04 | 0.04 | 74 | 1012.8 |
| 20260905221542 | 79 | 0 | 0.0 | 1.7 | 0.00 | 0.04 | 0.04 | 73 | 1012.8 |
| 20260905220051 | 79 | 238 | 0.9 | 2.6 | 0.00 | 0.04 | 0.04 | 74 | 1012.9 |
| 20260905214545 | 78 | 213 | 0.9 | 3.5 | 0.00 | 0.20 | 0.04 | 74 | 1013.1 |
| 20260905213052 | 78 | 223 | 0.9 | 3.5 | 0.00 | 0.20 | 0.04 | 76 | 1013.2 |
| 20260905211553 | 77 | 261 | 0.0 | 2.6 | 0.00 | 0.20 | 0.04 | 76 | 1013.5 |
| 20260905210049 | 77 | 226 | 1.7 | 4.3 | 0.00 | 0.20 | 0.04 | 77 | 1013.4 |
| 20260905204544 | 76 | 217 | 1.7 | 3.5 | 0.00 | 0.20 | 0.04 | 78 | 1013.3 |
| 20260905203043 | 76 | 242 | 1.7 | 5.2 | 0.00 | 0.20 | 0.04 | 79 | 1013.5 |
| 20260905201542 | 75 | 254 | 0.9 | 6.1 | 0.00 | 0.20 | 0.04 | 82 | 1013.4 |
| 20260905200052 | 75 | 214 | 0.0 | 1.7 | 0.00 | 0.20 | 0.04 | 81 | 1013.1 |
| 20260905194548 | 75 | 0 | 0.0 | 1.7 | 0.00 | 0.20 | 0.04 | 85 | 1013.7 |
| 20260905193044 | 73 | 0 | 0.0 | 2.6 | 0.00 | 0.20 | 0.04 | 86 | 1014.1 |
| 20260905191552 | 72 | 0 | 0.9 | 2.6 | 0.01 | 0.20 | 0.04 | 87 | 1014.0 |
| 20260905190105 | 71 | 0 | 0.0 | 0.9 | 0.03 | 0.20 | 0.04 | 87 | 1013.1 |
| 20260905184606 | 71 | 15 | 0.0 | 1.7 | 0.04 | 0.20 | 0.04 | 88 | 1012.3 |
| 20260905183043 | 71 | 0 | 0.0 | 6.1 | 0.04 | 0.20 | 0.04 | 86 | 1013.2 |
| 20260905181550 | 74 | 250 | 1.7 | 9.6 | 0.03 | 0.19 | 0.03 | 83 | 1014.4 |
| 20260905180046 | 87 | 201 | 1.7 | 7.0 | 0.01 | 0.17 | 0.01 | 62 | 1014.5 |
| 20260905174558 | 91 | 0 | 0.0 | 6.1 | 0.00 | 0.16 | 0.00 | 56 | 1013.7 |
| 20260905173048 | 92 | 0 | 0.0 | 5.2 | 0.00 | 0.16 | 0.00 | 56 | 1013.6 |
| 20260905171545 | 92 | 355 | 0.9 | 6.1 | 0.00 | 0.16 | 0.00 | 55 | 1014.0 |
| 20260905170056 | 93 | 262 | 0.9 | 5.2 | 0.00 | 0.16 | 0.00 | 57 | 1014.5 |
| 20260905164551 | 92 | 332 | 1.7 | 5.2 | 0.00 | 0.16 | 0.00 | 57 | 1014.6 |
| 20260905163046 | 91 | 210 | 0.0 | 4.3 | 0.00 | 0.16 | 0.00 | 61 | 1014.9 |
| 20260905161554 | 91 | 319 | 0.9 | 5.2 | 0.00 | 0.16 | 0.00 | 61 | 1015.0 |
| 20260905160054 | 89 | 203 | 0.9 | 5.2 | 0.00 | 0.16 | 0.00 | 62 | 1015.2 |
| 20260905154544 | 89 | 254 | 1.7 | 5.2 | 0.00 | 0.16 | 0.00 | 62 | 1015.2 |
| 20260905153043 | 88 | 235 | 1.7 | 5.2 | 0.00 | 0.16 | 0.00 | 68 | 1015.3 |
| 20260905151550 | 86 | 262 | 0.9 | 3.5 | 0.00 | 0.16 | 0.00 | 70 | 1015.2 |
| 20260905150050 | 86 | 0 | 0.9 | 3.5 | 0.00 | 0.16 | 0.00 | 68 | 1015.3 |
| 20260905144558 | 83 | 209 | 0.0 | 2.6 | 0.00 | 0.16 | 0.00 | 72 | 1015.5 |
| 20260905143053 | 83 | 239 | 0.9 | 4.3 | 0.00 | 0.16 | 0.00 | 73 | 1015.5 |
| 20260905141548 | 82 | 245 | 0.0 | 2.6 | 0.00 | 0.16 | 0.00 | 74 | 1015.3 |
| 20260905140057 | 81 | 206 | 1.7 | 4.3 | 0.00 | 0.16 | 0.00 | 75 | 1015.2 |
| 20260905134552 | 80 | 235 | 1.7 | 3.5 | 0.00 | 0.16 | 0.00 | 80 | 1015.4 |
| 20260905133048 | 79 | 0 | 0.0 | 3.5 | 0.00 | 0.16 | 0.00 | 80 | 1015.2 |
| 20260905131558 | 79 | 0 | 0.0 | 3.5 | 0.00 | 0.16 | 0.00 | 81 | 1015.5 |
| 20260905130055 | 77 | 221 | 0.0 | 1.7 | 0.00 | 0.16 | 0.00 | 82 | 1015.3 |
| 20260905124552 | 76 | 0 | 0.0 | 0.9 | 0.00 | 0.16 | 0.00 | 84 | 1015.5 |
| 20260905123055 | 74 | 0 | 0.0 | 0.9 | 0.00 | 0.16 | 0.00 | 86 | 1015.5 |
| 20260905121545 | 74 | 0 | 0.0 | 0.9 | 0.00 | 0.16 | 0.00 | 88 | 1015.8 |
| 20260905120054 | 73 | 0 | 0.0 | 0.0 | 0.00 | 0.16 | 0.00 | 89 | 1015.5 |
| 20260905114547 | 73 | 0 | 0.0 | 0.0 | 0.00 | 0.16 | 0.00 | 89 | 1015.4 |
| 20260905113044 | 72 | 0 | 0.0 | 0.9 | 0.00 | 0.16 | 0.00 | 91 | 1015.1 |
| 20260905111551 | 72 | 0 | 0.0 | 0.9 | 0.00 | 0.16 | 0.00 | 91 | 1015.0 |
| 20260905110052 | 72 | 0 | 0.0 | 0.0 | 0.00 | 0.16 | 0.00 | 91 | 1015.0 |